[[{"header":{"parameterUnit":"m.s-1","parameterCategory":1,"la1":30.2991,"la2":30.254,"lo1":-89.0895,"lo2":-89.0444,"dy":0.0017,"dx":0.0017,"nx":28,"ny":28,"refTime":"2025-05-31T21:00:00:Z","depth":0,"parameterNumber":2,"parameterNumberName":"U-component_of_WINDS"},"data":[0,0,0,0,0,0,0,0,0,0,0,0,0,0,0,0,0,0,0,0,0,0,0,0,0,0,0,0,0,0,0,0,0,0,0,0,0,0,0,0,0,0,0,0,0,0,0,0,0,0,0,0,0,0,0,0,0,0,2.674,2.6741,0,2.683,2.6831,2.6832,2.6765,2.6762,2.6759,2.6756,2.6849,2.6854,2.6859,0,0,0,0,0,0,0,0,0,0,0,0,0,2.651,2.6514,2.674,2.6741,2.6742,2.683,2.6831,2.6832,2.6765,2.6762,2.6758,2.6755,2.6847,2.6853,2.686,0,0,0,0,0,0,0,0,0,0,0,0,0,2.6606,2.6516,2.674,2.6719,2.6718,2.683,2.6831,2.6833,2.6766,2.6762,2.6757,2.6753,2.6845,2.6853,2.686,2.6997,0,0,2.6884,2.6888,0,0,0,0,0,0,0,0,2.66,2.6614,2.6721,2.6721,2.672,2.6782,2.6784,2.6888,2.6767,2.6748,2.6756,2.6751,2.683,2.6839,2.6865,2.7001,2.7005,2.6885,2.689,2.6893,2.6895,0,0,0,0,0,0,0,2.6594,2.661,2.6775,2.6723,2.6722,2.6705,2.6714,2.6803,2.6813,2.6749,2.6744,2.6756,2.6829,2.6858,2.6867,2.7007,2.6885,2.6892,2.6897,2.69,2.7258,2.7263,0,0,0,0,0,0,2.6589,2.6605,2.6773,2.6778,2.6648,2.6713,2.6723,2.6766,2.6811,2.6814,2.676,2.6753,2.6847,2.6858,2.687,2.7032,2.6893,2.69,2.6905,2.7254,2.7259,2.7265,0,0,0,0,0,0,2.6584,2.6605,2.6769,2.669,2.671,2.6722,2.6771,2.677,2.6799,2.6819,2.6821,2.6788,2.6844,2.6859,2.6966,2.7034,2.6904,2.6911,2.7248,2.7255,2.7262,2.7358,0,0,0,0,0,0,2.6578,2.6603,2.6655,2.6692,2.6714,2.6863,2.6775,2.6775,2.6813,2.6805,2.6846,2.6849,2.6842,2.6954,2.6974,2.7043,2.6917,2.7242,2.7251,2.726,2.7349,2.7367,2.7384,0,0,0,0,0,2.657,2.6679,2.6658,2.6679,2.678,2.6867,2.688,2.687,2.6819,2.6871,2.6884,2.6848,2.7024,2.6966,2.6987,2.706,2.7237,2.7248,2.7259,2.7341,2.7364,2.7383,0,0,0,0,0,0,2.665,2.6684,2.6661,2.6785,2.6824,2.6856,2.6921,2.6895,2.6949,2.6938,2.6923,2.6933,2.7045,2.7063,2.6998,2.7194,2.7123,2.7138,2.7178,2.72,2.7217,2.721,2.6924,0,0,0,0,0,2.6683,2.6751,2.6776,2.6884,2.6904,2.691,2.6948,2.6936,2.6976,2.6992,2.7012,2.7052,2.7116,2.7159,2.722,2.7351,2.7359,2.7412,2.7429,2.7443,2.7457,2.7526,2.755,2.73,2.73,2.73,0,0,2.675,2.6776,2.6821,2.69,2.6929,2.7,2.6924,2.7003,2.7055,2.7004,2.7105,2.7122,2.7165,2.7285,2.7338,2.7303,2.7527,2.7457,2.7468,2.7474,2.754,2.7564,2.7585,2.7308,2.7306,2.7305,0,0,2.6908,2.6936,2.7027,2.7058,2.7102,2.7105,2.7127,2.7163,2.7172,2.7274,2.7237,2.7299,2.741,2.7443,2.7474,2.7644,2.7612,2.7665,2.7756,2.7824,2.7843,2.7861,2.792,2.7942,2.7678,2.7678,2.7678,0,2.6986,2.7091,2.7078,2.7159,2.7195,2.7152,2.7244,2.7275,2.7337,2.7362,2.7322,2.7461,2.7487,2.7613,2.7654,2.7681,2.7705,2.7659,2.7842,2.7859,2.7875,2.7932,2.7954,2.7684,2.7683,2.7683,2.7682,0,2.7184,2.7258,2.7327,2.7387,2.7431,2.7518,2.7517,2.7563,2.7548,2.7555,2.7659,2.7689,2.7754,2.7784,2.777,2.7908,2.7884,2.7844,2.7772,2.7905,2.7958,2.798,2.7693,2.769,2.7689,2.7687,0,0,2.7395,2.7447,2.7473,2.7499,2.7545,2.7602,2.7686,2.775,2.7789,2.7833,2.7903,2.7998,2.7961,2.7996,2.7985,2.8046,2.8177,2.7997,2.7998,2.8028,2.833,2.8359,2.8384,2.8157,2.8161,2.8164,2.8325,0,2.7555,2.7702,2.7692,2.783,2.7898,2.7858,2.7931,2.7967,2.7976,2.8035,2.8045,2.8112,2.8058,2.8078,2.8136,2.8149,2.8237,2.8138,2.8221,2.8224,2.821,2.8412,2.8444,2.8594,2.8346,2.835,2.8352,0,2.7761,2.7812,2.7956,2.7991,2.8019,2.8085,2.8142,2.8199,2.8239,2.8241,2.8281,2.826,2.8345,2.8272,2.8388,2.832,2.8354,2.8366,2.8371,2.8378,2.8295,2.8423,2.8642,2.8664,2.8385,2.8382,2.838,0,2.7899,2.8003,2.8103,2.8127,2.8171,2.8218,2.8239,2.8274,2.8313,2.8363,2.8387,2.8447,2.848,2.8526,2.8522,2.8469,2.864,2.8567,2.8644,2.8644,2.868,2.8678,2.8907,2.8705,2.8704,2.8704,2.8703,0,2.8077,2.8167,2.8165,2.8227,2.8326,2.8314,2.8413,2.8428,2.846,2.8523,2.8493,2.8553,2.8544,2.8605,2.8602,2.8698,2.8714,2.8717,2.8715,2.8719,2.8719,2.874,2.8729,2.871,2.8708,2.8707,2.8706,0,2.8247,2.825,2.8356,2.8389,2.8399,2.847,2.8498,2.8556,2.8562,2.8643,2.8661,2.8672,2.8741,2.8742,2.8821,2.8819,2.8936,2.8923,2.8923,2.892,2.8996,2.8988,2.9246,2.9278,2.9056,2.9058,2.906,0,2.836,2.8428,2.8468,2.8508,2.8531,2.8596,2.8635,2.8627,2.8669,2.8719,2.8771,2.8837,2.8889,2.9002,2.9017,2.9077,2.9064,2.915,2.9073,2.9075,2.9064,2.9059,2.9065,2.9165,2.9168,2.917,2.9171,0,2.856,2.8558,2.8615,2.8674,2.8721,2.8767,2.8808,2.8843,2.8839,2.8888,2.8958,2.8999,2.9079,2.9145,2.9204,2.9224,2.9197,2.9196,2.9216,2.922,2.9217,2.9218,2.8962,2.9189,2.9188,2.9186,2.9185,2.9185,2.8704,2.8762,2.8799,2.8864,2.8895,2.8934,2.899,2.9003,2.9062,2.9126,2.9118,2.9196,2.9234,2.9309,2.9335,2.9396,2.9366,2.9396,2.9403,2.9411,2.9418,2.9208,2.9407,2.9406,2.9406,2.9405,2.9405,0,2.8901,2.8923,2.8983,2.9042,2.9093,2.9063,2.9108,2.9152,2.9221,2.9259,2.9311,2.9391,2.9455,2.9475,2.9536,2.9581,2.957,2.9598,2.9593,2.9598,2.9442,2.9418,2.9605,2.9605,2.9605,2.9605,2.9605,2.9605,2.901,2.9106,2.9108,2.922,2.9241,2.9317,2.9345,2.9381,2.941,2.9502,2.9554,2.9567,2.9597,2.966,2.9717,2.9721,2.9745,2.9777,2.9776,2.963,2.961,2.959,2.9567,2.9783,2.9783,2.9927,2.9928,2.9929]},{"header":{"parameterUnit":"m.s-1","parameterCategory":1,"la1":30.2991,"la2":30.254,"lo1":-89.0895,"lo2":-89.0444,"dy":0.0017,"dx":0.0017,"nx":28,"ny":28,"refTime":"2025-05-31T21:00:00:Z","depth":0,"parameterNumber":3,"parameterNumberName":"V-component_of_WINDS"},"data":[0,0,0,0,0,0,0,0,0,0,0,0,0,0,0,0,0,0,0,0,0,0,0,0,0,0,0,0,0,0,0,0,0,0,0,0,0,0,0,0,0,0,0,0,0,0,0,0,0,0,0,0,0,0,0,0,0,0,-0.6042,-0.6041,0,-0.596,-0.596,-0.5959,-0.5959,-0.596,-0.5961,-0.5962,-0.5872,-0.5868,-0.5865,0,0,0,0,0,0,0,0,0,0,0,0,0,-0.6193,-0.619,-0.6042,-0.6041,-0.604,-0.5961,-0.5959,-0.5958,-0.5959,-0.596,-0.5961,-0.5962,-0.5873,-0.5869,-0.5865,0,0,0,0,0,0,0,0,0,0,0,0,0,-0.6121,-0.6189,-0.6042,-0.6031,-0.6029,-0.5961,-0.5959,-0.5958,-0.5958,-0.596,-0.5962,-0.5963,-0.5874,-0.5869,-0.5864,-0.58,0,0,-0.5849,-0.5846,0,0,0,0,0,0,0,0,-0.6125,-0.6115,-0.6034,-0.6032,-0.6029,-0.5972,-0.598,-0.5905,-0.5958,-0.5985,-0.5962,-0.5964,-0.5903,-0.5896,-0.5877,-0.5796,-0.5792,-0.5848,-0.5845,-0.5843,-0.5841,0,0,0,0,0,0,0,-0.613,-0.6119,-0.601,-0.6032,-0.603,-0.6028,-0.602,-0.5965,-0.5936,-0.5983,-0.5983,-0.5973,-0.5902,-0.5882,-0.5875,-0.5791,-0.5848,-0.5844,-0.5841,-0.5839,-0.5652,-0.5651,0,0,0,0,0,0,-0.6138,-0.6123,-0.6012,-0.6007,-0.6082,-0.6024,-0.6015,-0.5988,-0.5936,-0.593,-0.5972,-0.5974,-0.589,-0.5881,-0.5871,-0.5792,-0.5843,-0.5838,-0.5835,-0.5654,-0.5652,-0.565,0,0,0,0,0,0,-0.6141,-0.6128,-0.6016,-0.6065,-0.6051,-0.602,-0.599,-0.5986,-0.5965,-0.5928,-0.5922,-0.5957,-0.5891,-0.5879,-0.5818,-0.5789,-0.5836,-0.5831,-0.5657,-0.5654,-0.5651,-0.5633,0,0,0,0,0,0,-0.6146,-0.6129,-0.6106,-0.6065,-0.6048,-0.5965,-0.5989,-0.5983,-0.5957,-0.5959,-0.5912,-0.5906,-0.5891,-0.5826,-0.5813,-0.5783,-0.5827,-0.5659,-0.5655,-0.5652,-0.5636,-0.563,-0.5625,0,0,0,0,0,-0.6151,-0.6103,-0.6105,-0.6091,-0.6018,-0.5963,-0.5954,-0.5939,-0.5955,-0.593,-0.5906,-0.5908,-0.5795,-0.582,-0.5805,-0.5773,-0.5661,-0.5656,-0.5652,-0.5638,-0.5631,-0.5625,0,0,0,0,0,0,-0.6138,-0.6097,-0.6099,-0.6036,-0.6004,-0.5964,-0.5931,-0.5932,-0.5892,-0.5895,-0.5876,-0.5866,-0.5805,-0.5783,-0.5812,-0.5708,-0.5729,-0.5722,-0.5724,-0.5716,-0.5711,-0.5716,-0.5823,0,0,0,0,0,-0.6129,-0.609,-0.6055,-0.6003,-0.5987,-0.5962,-0.5938,-0.593,-0.5894,-0.588,-0.5852,-0.5816,-0.5772,-0.5744,-0.5702,-0.5634,-0.5623,-0.5605,-0.5599,-0.5595,-0.5587,-0.5549,-0.554,-0.5636,-0.5636,-0.5636,0,0,-0.6107,-0.608,-0.6056,-0.6,-0.5973,-0.5931,-0.595,-0.5905,-0.5873,-0.5872,-0.5813,-0.5792,-0.5751,-0.5686,-0.5656,-0.5666,-0.5559,-0.5589,-0.5586,-0.5581,-0.5544,-0.5535,-0.5526,-0.5633,-0.5634,-0.5634,0,0,-0.6046,-0.6023,-0.5976,-0.5951,-0.5912,-0.5896,-0.5886,-0.5846,-0.5832,-0.5774,-0.5772,-0.5734,-0.5659,-0.563,-0.5605,-0.5535,-0.5534,-0.5522,-0.5491,-0.5454,-0.5446,-0.544,-0.5413,-0.5404,-0.5516,-0.5516,-0.5516,0,-0.6023,-0.5962,-0.5952,-0.5907,-0.5881,-0.5882,-0.5834,-0.5809,-0.5757,-0.5739,-0.5752,-0.5659,-0.5631,-0.5559,-0.5543,-0.5523,-0.5508,-0.5526,-0.5449,-0.5442,-0.5435,-0.5409,-0.54,-0.5515,-0.5515,-0.5515,-0.5515,0,-0.5935,-0.5893,-0.586,-0.5813,-0.5784,-0.5738,-0.5719,-0.569,-0.5686,-0.5668,-0.5608,-0.5576,-0.5527,-0.551,-0.5504,-0.5437,-0.5444,-0.5453,-0.5474,-0.5425,-0.54,-0.539,-0.5513,-0.5513,-0.5514,-0.5514,0,0,-0.586,-0.5811,-0.5798,-0.5777,-0.5736,-0.5701,-0.5655,-0.561,-0.5585,-0.5551,-0.5509,-0.5448,-0.5456,-0.5428,-0.5419,-0.5387,-0.5332,-0.54,-0.5398,-0.5386,-0.5255,-0.5246,-0.5235,-0.5333,-0.5331,-0.533,-0.5257,0,-0.5793,-0.5713,-0.5703,-0.563,-0.559,-0.5591,-0.555,-0.552,-0.5503,-0.5465,-0.5446,-0.5401,-0.5417,-0.54,-0.5369,-0.5345,-0.5305,-0.5351,-0.5292,-0.529,-0.5299,-0.5222,-0.5213,-0.5146,-0.5248,-0.5246,-0.5245,0,-0.5703,-0.5669,-0.5593,-0.5557,-0.554,-0.5504,-0.5461,-0.5426,-0.5391,-0.5381,-0.5351,-0.5347,-0.5297,-0.5323,-0.5253,-0.5284,-0.526,-0.5245,-0.5242,-0.5233,-0.5262,-0.5209,-0.5125,-0.5114,-0.523,-0.5231,-0.5232,0,-0.5654,-0.5588,-0.5534,-0.5516,-0.5474,-0.5448,-0.5429,-0.5396,-0.537,-0.5333,-0.5315,-0.5272,-0.5248,-0.5214,-0.5197,-0.5218,-0.5128,-0.5153,-0.5116,-0.5116,-0.5094,-0.5095,-0.5002,-0.5083,-0.5083,-0.5084,-0.5084,0,-0.5578,-0.5531,-0.5511,-0.5477,-0.5424,-0.5414,-0.5361,-0.5342,-0.5313,-0.5275,-0.5274,-0.5237,-0.5219,-0.5179,-0.5166,-0.5109,-0.5099,-0.5088,-0.5084,-0.5086,-0.5087,-0.5067,-0.507,-0.5081,-0.5081,-0.5082,-0.5082,0,-0.5512,-0.5497,-0.5438,-0.5405,-0.5395,-0.5357,-0.5327,-0.5293,-0.5279,-0.523,-0.5218,-0.5193,-0.5146,-0.5128,-0.507,-0.5062,-0.4995,-0.4997,-0.5007,-0.5005,-0.4969,-0.4972,-0.4857,-0.4841,-0.4936,-0.4935,-0.4935,0,-0.5463,-0.5427,-0.539,-0.5366,-0.5346,-0.5306,-0.528,-0.5269,-0.5241,-0.52,-0.5171,-0.5125,-0.5087,-0.5013,-0.4988,-0.4944,-0.4943,-0.4906,-0.4936,-0.4939,-0.4939,-0.494,-0.4936,-0.4899,-0.4898,-0.4898,-0.4897,0,-0.5377,-0.5372,-0.5335,-0.5296,-0.5266,-0.5234,-0.5202,-0.5182,-0.5166,-0.5134,-0.5088,-0.5059,-0.5002,-0.4956,-0.4911,-0.4889,-0.4889,-0.4889,-0.4877,-0.4877,-0.4884,-0.4877,-0.4989,-0.489,-0.4891,-0.4891,-0.4892,-0.4892,-0.5316,-0.5284,-0.5253,-0.5212,-0.5189,-0.516,-0.5127,-0.5109,-0.5071,-0.5024,-0.502,-0.497,-0.4936,-0.4876,-0.4853,-0.4813,-0.4822,-0.4806,-0.4801,-0.4797,-0.4793,-0.4893,-0.4805,-0.4805,-0.4805,-0.4805,-0.4805,0,-0.5227,-0.5209,-0.5172,-0.5129,-0.5097,-0.5104,-0.507,-0.5042,-0.4998,-0.4968,-0.4932,-0.4879,-0.4835,-0.4808,-0.4763,-0.4736,-0.4734,-0.4724,-0.4724,-0.4719,-0.4789,-0.4802,-0.4726,-0.4726,-0.4726,-0.4726,-0.4726,-0.4726,-0.5177,-0.5123,-0.5115,-0.5049,-0.503,-0.4982,-0.4962,-0.4935,-0.4911,-0.4852,-0.4816,-0.4801,-0.4771,-0.4725,-0.4684,-0.4677,-0.4659,-0.4648,-0.4641,-0.4706,-0.4714,-0.4722,-0.4734,-0.4645,-0.4645,-0.4574,-0.4574,-0.4573]}]]